Regional Weather Roundup
Issued by NWS

Home | Current Version | Previous Version | Text Only | Print | Product List | Glossary Off
Versions: 1 2 3 4 5 6 7 8 9 10 11 12 13 14 15 16 17 18 19 20 21 22 23 24 25 26 27 28 29 30 31 32 33 34 35 36 37 38 39 40 41 42 43 44 45 46 47 48 49 50

000
ASUS43 KFSD 272210
RWRSD

WEATHER ROUNDUP FOR SOUTH DAKOTA
NATIONAL WEATHER SERVICE SIOUX FALLS SD
500 PM CDT THU AUG 27 2015

NOTE: "FAIR" INDICATES FEW OR NO CLOUDS BELOW 12,000 FEET WITH NO
SIGNIFICANT WEATHER AND/OR OBSTRUCTIONS TO VISIBILITY.


SDZ001>005-009-010-012>017-272300-
NORTHWEST AND NORTH CENTRAL SOUTH DAKOTA

CITY           SKY/WX    TMP DP  RH WIND       PRES   REMARKS
BUFFALO          N/A     86  62  44 N7        29.88F
FAITH            N/A     79  58  48 SE13      29.98F
MOBRIDGE       FAIR      77  68  73 S6        29.94F
$$

SDZ012>016-024>037-041>051-057-063-072>074-272300-
SOUTHWEST AND SOUTH CENTRAL SOUTH DAKOTA

CITY           SKY/WX    TMP DP  RH WIND       PRES   REMARKS
RAPID CTY ARPT FAIR      79  59  50 NE8       30.01F
PIERRE         CLOUDY    73  68  84 N9        29.95R
CUSTER         PTSUNNY   72  50  45 VRB5      30.15F
PHILIP         CLOUDY    69  66  90 N7        29.95F
PINE RIDGE     CLOUDY    71  59  65 NE7       30.01F
WINNER         LGT RAIN  77  69  76 NE10      29.91R
$$

SDZ004>011-016>023-039-040-272300-
NORTHEAST SOUTH DAKOTA

CITY           SKY/WX    TMP DP  RH WIND       PRES   REMARKS
ABERDEEN       FAIR      75  66  73 S7        29.95S
WATERTOWN      LGT RAIN  72  67  84 CALM      29.98S
BROOKINGS      FAIR      75  68  78 SE9       29.99F
SISSETON         N/A     76  68  76 S8        29.94R
$$

SDZ017-020-022-023-036>040-048>070-272300-
SOUTHEAST SOUTH DAKOTA

CITY           SKY/WX    TMP DP  RH WIND       PRES   REMARKS
SIOUX FALLS    TSTM      75  68  78 E9        29.97F
HURON          FAIR      79  70  74 E8        29.92F
CHAMBERLAIN    FAIR      78  69  74 E7        29.89S
MITCHELL       FAIR      80  69  69 E13       29.91F
YANKTON        FAIR      81  68  65 E13       29.89R
$$

ABBREVIATIONS USED IN REMARKS
   TC - TEMPERATURE IN CELSIUS
  WCI - WIND CHILL INDEX
   HX - HEAT INDEX
  VSB - VISIBILITY




USA.gov is the U.S. government's official web portal to all federal, state and local government web resources and services.